TimeEST,TemperatureF,Dew PointF,Humidity,Sea Level PressureIn,VisibilityMPH,Wind Direction,Wind SpeedMPH,Gust SpeedMPH,PrecipitationIn,Events,Conditions,WindDirDegrees,DateUTC
12:15 AM,26.6,21.2,80,30.31,10.0,Calm,Calm,-,N/A,,Overcast,0,2013-01-28 05:15:00
12:35 AM,28.4,21.2,74,30.30,10.0,Calm,Calm,-,N/A,,Overcast,0,2013-01-28 05:35:00
1:15 AM,32.0,19.4,60,30.29,10.0,WSW,8.1,-,N/A,,Overcast,240,2013-01-28 06:15:00
1:35 AM,33.8,19.4,56,30.29,10.0,WSW,6.9,-,N/A,,Light Drizzle,240,2013-01-28 06:35:00
1:55 AM,33.8,21.2,60,30.28,10.0,SW,9.2,-,N/A,,Drizzle,230,2013-01-28 06:55:00
2:15 AM,35.6,21.2,56,30.28,10.0,SW,10.4,-,N/A,,Drizzle,230,2013-01-28 07:15:00
2:35 AM,33.8,24.8,70,30.28,10.0,SW,11.5,-,N/A,,Drizzle,230,2013-01-28 07:35:00
2:55 AM,33.8,28.4,81,30.27,7.0,SW,4.6,-,N/A,,Drizzle,220,2013-01-28 07:55:00
3:15 AM,33.8,30.2,87,30.26,5.0,SW,5.8,-,0.03,Rain,Heavy Rain,230,2013-01-28 08:15:00
3:35 AM,33.8,32.0,93,30.25,5.0,SW,8.1,-,0.05,Rain,Light Rain,220,2013-01-28 08:35:00
3:55 AM,32.0,30.2,93,30.25,5.0,SW,8.1,-,N/A,,Drizzle,220,2013-01-28 08:55:00
4:15 AM,32.0,30.2,93,30.25,4.0,SW,8.1,-,0.02,,Overcast,230,2013-01-28 09:15:00
4:35 AM,30.2,30.2,100,30.25,1.8,WSW,9.2,-,0.03,,Overcast,240,2013-01-28 09:35:00
4:55 AM,28.4,28.4,100,30.26,0.2,WSW,8.1,-,0.02,,Overcast,250,2013-01-28 09:55:00
5:15 AM,30.2,30.2,100,30.26,0.5,WSW,9.2,-,0.04,,Overcast,250,2013-01-28 10:15:00
5:35 AM,30.2,30.2,100,30.25,0.2,WSW,10.4,-,0.07,,Overcast,250,2013-01-28 10:35:00
5:55 AM,30.2,30.2,100,30.26,0.2,WSW,10.4,-,N/A,,Overcast,250,2013-01-28 10:55:00
6:15 AM,32.0,32.0,100,30.25,0.2,WSW,12.7,-,N/A,,Overcast,250,2013-01-28 11:15:00
6:35 AM,33.8,33.8,100,30.26,0.2,WSW,13.8,-,N/A,,Overcast,250,2013-01-28 11:35:00
6:55 AM,32.0,32.0,100,30.26,0.2,WSW,11.5,-,N/A,Snow,Light Snow,250,2013-01-28 11:55:00
7:15 AM,33.8,33.8,100,30.26,0.2,WSW,15.0,-,N/A,Snow,Light Snow,250,2013-01-28 12:15:00
7:35 AM,33.8,33.8,100,30.26,0.2,WSW,15.0,-,N/A,Snow,Snow,250,2013-01-28 12:35:00
7:55 AM,33.8,33.8,100,30.27,0.2,WSW,16.1,-,N/A,Snow,Light Snow,250,2013-01-28 12:55:00
8:15 AM,35.6,35.6,100,30.27,0.2,WSW,18.4,-,N/A,Snow,Snow,250,2013-01-28 13:15:00
8:35 AM,35.6,35.6,100,30.27,0.2,WSW,18.4,-,N/A,Snow,Light Snow,250,2013-01-28 13:35:00
8:55 AM,35.6,35.6,100,30.26,0.2,West,18.4,66.7,N/A,Snow,Light Snow,260,2013-01-28 13:55:00
9:15 AM,35.6,35.6,100,30.26,-9999.0,WSW,23.0,-,N/A,,Unknown,250,2013-01-28 14:15:00
9:35 AM,37.4,37.4,100,30.26,1.0,WSW,24.2,28.8,N/A,Snow,Light Snow,250,2013-01-28 14:35:00
9:55 AM,37.4,37.4,100,30.26,1.2,West,20.7,25.3,N/A,Snow,Light Snow,260,2013-01-28 14:55:00
10:15 AM,37.4,37.4,100,30.25,10.0,WSW,24.2,28.8,N/A,,Mostly Cloudy,250,2013-01-28 15:15:00
10:35 AM,39.2,37.4,93,30.25,10.0,West,21.9,27.6,N/A,,Clear,260,2013-01-28 15:35:00
10:55 AM,39.2,37.4,93,30.26,10.0,West,17.3,21.9,N/A,,Mostly Cloudy,260,2013-01-28 15:55:00
11:15 AM,41.0,37.4,87,30.25,10.0,West,21.9,27.6,N/A,,Overcast,260,2013-01-28 16:15:00
11:35 AM,42.8,39.2,87,30.25,10.0,WSW,20.7,26.5,N/A,,Mostly Cloudy,250,2013-01-28 16:35:00
11:55 AM,42.8,39.2,87,30.24,10.0,West,18.4,25.3,N/A,,Mostly Cloudy,260,2013-01-28 16:55:00
12:15 PM,46.4,41.0,81,30.23,0.2,West,17.3,27.6,N/A,,Haze,260,2013-01-28 17:15:00
12:35 PM,46.4,42.8,87,30.21,10.0,West,16.1,20.7,N/A,,Scattered Clouds,260,2013-01-28 17:35:00
12:55 PM,46.4,42.8,87,30.19,10.0,West,18.4,26.5,N/A,,Clear,260,2013-01-28 17:55:00
1:35 PM,46.4,42.8,87,30.18,-9999.0,West,18.4,25.3,N/A,,Clear,260,2013-01-28 18:35:00
1:55 PM,-9999,-9999,N/A,30.18,-9999.0,West,20.7,-,N/A,,Unknown,260,2013-01-28 18:55:00
2:15 PM,46.4,42.8,87,30.17,-9999.0,West,17.3,21.9,N/A,,Overcast,270,2013-01-28 19:15:00
2:35 PM,46.4,42.8,87,30.17,-9999.0,West,18.4,23.0,N/A,,Overcast,260,2013-01-28 19:35:00
2:55 PM,-9999,-9999,N/A,30.17,-9999.0,West,17.3,-,N/A,,Unknown,260,2013-01-28 19:55:00
3:15 PM,48.2,42.8,82,30.16,-9999.0,West,18.4,27.6,N/A,,Clear,260,2013-01-28 20:15:00
3:35 PM,48.2,42.8,82,30.16,-9999.0,West,18.4,26.5,N/A,,Clear,260,2013-01-28 20:35:00
3:55 PM,48.2,42.8,82,30.16,-9999.0,West,23.0,29.9,N/A,,Scattered Clouds,260,2013-01-28 20:55:00
4:15 PM,48.2,42.8,82,30.17,-9999.0,West,19.6,27.6,N/A,,Mostly Cloudy,260,2013-01-28 21:15:00
4:35 PM,48.2,42.8,82,30.17,-9999.0,West,20.7,29.9,N/A,,Mostly Cloudy,260,2013-01-28 21:35:00
4:55 PM,48.2,42.8,82,30.17,-9999.0,West,18.4,25.3,N/A,,Mostly Cloudy,260,2013-01-28 21:55:00
5:15 PM,48.2,42.8,82,30.17,-9999.0,West,16.1,-,N/A,,Mostly Cloudy,260,2013-01-28 22:15:00
5:35 PM,46.4,42.8,87,30.17,-9999.0,West,18.4,21.9,N/A,,Unknown,260,2013-01-28 22:35:00
5:55 PM,46.4,42.8,87,30.17,-9999.0,West,18.4,25.3,N/A,,Unknown,260,2013-01-28 22:55:00
6:15 PM,48.2,42.8,82,30.18,-9999.0,West,17.3,23.0,N/A,,Unknown,260,2013-01-28 23:15:00
6:35 PM,46.4,44.6,93,30.18,-9999.0,West,19.6,26.5,N/A,,Overcast,260,2013-01-28 23:35:00
6:55 PM,46.4,44.6,93,30.17,-9999.0,West,23.0,28.8,N/A,,Unknown,260,2013-01-28 23:55:00
7:15 PM,46.4,44.6,93,30.16,-9999.0,West,23.0,35.7,N/A,,Overcast,260,2013-01-29 00:15:00
7:35 PM,46.4,44.6,93,30.16,1.0,West,21.9,29.9,N/A,,Overcast,270,2013-01-29 00:35:00
7:55 PM,46.4,46.4,100,30.16,-9999.0,West,21.9,34.5,N/A,,Overcast,260,2013-01-29 00:55:00
8:15 PM,46.4,46.4,100,30.17,10.0,West,21.9,25.3,N/A,,Overcast,260,2013-01-29 01:15:00
8:35 PM,46.4,46.4,100,30.16,1.2,West,23.0,31.1,N/A,,Overcast,260,2013-01-29 01:35:00
8:55 PM,46.4,46.4,100,30.16,2.5,West,20.7,31.1,N/A,,Overcast,270,2013-01-29 01:55:00
9:15 PM,46.4,46.4,100,30.16,0.2,WSW,19.6,25.3,N/A,Fog,Fog,250,2013-01-29 02:15:00
9:35 PM,46.4,46.4,100,30.16,0.2,West,21.9,27.6,N/A,Fog,Fog,260,2013-01-29 02:35:00
9:55 PM,46.4,44.6,93,30.17,0.2,West,19.6,27.6,N/A,Rain,Light Rain,270,2013-01-29 02:55:00
10:15 PM,46.4,44.6,93,30.16,0.2,West,19.6,28.8,N/A,Rain,Light Rain,260,2013-01-29 03:15:00
10:35 PM,46.4,46.4,100,30.16,0.2,West,20.7,27.6,N/A,,Unknown,260,2013-01-29 03:35:00
10:55 PM,44.6,44.6,100,30.16,0.2,West,19.6,29.9,N/A,,Unknown,260,2013-01-29 03:55:00
11:15 PM,44.6,44.6,100,30.16,0.2,West,18.4,26.5,N/A,,Unknown,270,2013-01-29 04:15:00
11:35 PM,44.6,44.6,100,30.16,0.2,West,19.6,29.9,N/A,,Unknown,260,2013-01-29 04:35:00
11:55 PM,44.6,44.6,100,30.16,0.2,West,19.6,26.5,N/A,,Unknown,260,2013-01-29 04:55:00